sat.trackr.live / text

‹ back to catalog

STARLINK-31645

NORAD 59264 · 2024-050L

PAYLOAD ACTIVE UNKNOWN

§ Identity

Operator
Country
US
Launch date
2024-03-19
Launch site
AFWTR
Launch vehicle
Mass (kg)
RCS (m²)

Purposes: comms

External: N2YO · Heavens-Above · Gunter

§ Orbital elements

Epoch: 2026-09-20T12:51:53.608896Z

Period
93.85 min
Inclination
53.1606°
Eccentricity
0.0001074
Mean motion
15.34398539 rev/d
Perigee alt
462.0 km
Apogee alt
463.4 km
Semi-major
6,840.8 km
B*
7.9327e-4
RAAN
353.5974°
Arg perigee
74.4321°
Mean anomaly
285.6801°
Rev number
14,041

§ Raw data

STARLINK-316451 59264U 24050L   26263.53603714  .00026519  00000+0  79327-3 0  99982 59264  53.1606 353.5974 0001074  74.4321 285.6801 15.34398539140418

JSON: /api/v1/satellites/59264 · /tle

For live sub-satellite position, see the globe view (requires WebGL).

§ Visibility from observer

Set your observer location to see the next 7 days of passes ≥ 10°. The values pass through the URL so the page stays shareable.

No JS? Fill the form by hand. The geolocation button needs JavaScript.